Regional Weather Roundup
Issued by NWS Sioux Falls, SD

Home | Current Version | Previous Version | Text Only | Print | Product List | Glossary On
Versions: 1 2 3 4 5 6 7 8 9 10 11 12 13 14 15 16 17 18 19 20 21 22 23 24 25 26 27 28 29 30 31 32 33 34 35 36 37 38 39 40 41 42 43 44 45 46 47 48 49 50
000
ASUS43 KFSD 271810
RWRFSD

WEATHER ROUNDUP FOR SE SOUTH DAKOTA/SW MINNESOTA/NW IOWA
NATIONAL WEATHER SERVICE SIOUX FALLS SD
100 PM CDT WED MAY 27 2015

NOTE: "FAIR" INDICATES FEW OR NO CLOUDS BELOW 12,000 FEET WITH NO
SIGNIFICANT WEATHER AND OR OBSTRUCTIONS TO VISIBILITY.


SDZ038>040-050-052>070-271900-
SOUTHEAST SOUTH DAKOTA

CITY           SKY/WX    TMP DP  RH WIND       PRES   REMARKS
BROOKINGS      FAIR      79  48  34 W7        30.01F
CHAMBERLAIN    PTSUNNY   77  52  41 S14       30.03S
6HR MIN TEMP:  54; 6HR MAX TEMP:  77;

HURON          SUNNY     81  49  32 CALM      30.00F
6HR MIN TEMP:  53; 6HR MAX TEMP:  81;

MADISON        FAIR      79  45  29 W9        30.03S
MITCHELL       SUNNY     80  52  37 VRB5      30.02F
6HR MIN TEMP:  57; 6HR MAX TEMP:  80;

SIOUX FALLS    FAIR      80  51  36 NW8       30.02S
6HR MIN TEMP:  56; 6HR MAX TEMP:  81;

WINNER         FAIR      75  50  41 S18       30.04S
YANKTON        FAIR      79  52  38 W3        30.02F
$$

MNZ071-072-080-081-089-090-097-098-271900-
SOUTHWEST MINNESOTA

CITY           SKY/WX    TMP DP  RH WIND       PRES   REMARKS
FAIRMONT       FAIR      79  55  44 W9        30.00S
JACKSON        FAIR      79  55  44 W10       30.02S
LUVERNE        FAIR      81  50  34 W7G16     30.03S
MARSHALL       FAIR      79  50  36 NW9       29.98S
6HR MIN TEMP:  55; 6HR MAX TEMP:  81;

MONTEVIDEO     FAIR      81  55  41 NW7       29.98S
REDWOOD FALLS  FAIR      80  56  43 W9        29.97S
TRACY          FAIR      80  53  40 NW6       30.00S
WINDOM         FAIR      79  54  41 W7        30.01R
WORTHINGTON    FAIR      79  50  36 W12       30.02S
$$

IAZ001>003-012>014-020>022-031-032-NEZ013-014-SDZ071-271900-
NORTHWEST IOWA

CITY           SKY/WX    TMP DP  RH WIND       PRES   REMARKS
CHEROKEE       FAIR      77  55  46 W9        30.04S
DENISON        FAIR      77  59  53 SW9       30.03F
ESTHERVILLE    FAIR      77  54  44 NW12      30.01S
LE MARS        FAIR      79  52  38 NW7G14    30.04F
ORANGE CITY    FAIR      77  52  41 W9        30.04S
SHELDON        FAIR      79  75  89 W12       30.02F
SIOUX CITY     FAIR      80  54  40 CALM      30.04F
6HR MIN TEMP:  54; 6HR MAX TEMP:  81;

SPENCER        FAIR      80  56  43 W12G21    30.02S
6HR MIN TEMP:  51; 6HR MAX TEMP:  80;

STORM LAKE     FAIR      77  55  47 W10G17    30.06S
$$

ABBREVIATIONS USED IN REMARKS
   TC - TEMPERATURE IN CELSIUS
  WCI - WIND CHILL INDEX
   HX - HEAT INDEX
  VSB - VISIBILITY




USA.gov is the U.S. government's official web portal to all federal, state and local government web resources and services.